Time,TemperatureF,DewpointF,PressureIn,WindDirection,WindDirectionDegrees,WindSpeedMPH,WindSpeedGustMPH,Humidity,HourlyPrecipIn,Conditions,Clouds,dailyrainin,SoftwareType,DateUTC
2013-02-13 00:00:00,48.2,45.4,30.28,SSW,193,1.0,2.0,90,0.00,,,0.02,Wunderground v.1.15,2013-02-13 08:00:00,
2013-02-13 00:05:00,48.2,45.4,30.29,SE,145,1.0,2.0,90,0.00,,,0.00,Wunderground v.1.15,2013-02-13 08:05:00,
2013-02-13 00:15:00,48.2,45.4,30.29,NNW,345,0.0,1.0,90,0.00,,,0.00,Wunderground v.1.15,2013-02-13 08:15:00,
2013-02-13 00:25:00,48.2,45.1,30.30,SE,141,0.0,0.0,89,0.00,,,0.00,Wunderground v.1.15,2013-02-13 08:25:00,
2013-02-13 00:35:00,48.2,45.1,30.30,NW,315,0.0,13.0,89,0.00,,,0.00,Wunderground v.1.15,2013-02-13 08:35:00,
2013-02-13 00:45:00,48.3,45.2,30.30,NW,308,0.0,13.0,89,0.00,,,0.00,Wunderground v.1.15,2013-02-13 08:45:00,
2013-02-13 00:55:00,48.3,45.5,30.30,NE,37,0.0,13.0,90,0.00,,,0.00,Wunderground v.1.15,2013-02-13 08:55:00,
2013-02-13 01:05:00,48.2,45.7,30.30,South,171,0.0,0.0,91,0.00,,,0.00,Wunderground v.1.15,2013-02-13 09:05:00,
2013-02-13 01:15:00,48.0,45.8,30.31,NW,326,0.0,0.0,92,0.00,,,0.00,Wunderground v.1.15,2013-02-13 09:15:00,
2013-02-13 01:20:00,47.9,45.7,30.31,South,185,0.0,0.0,92,0.00,,,0.01,Wunderground v.1.15,2013-02-13 09:20:00,
2013-02-13 01:25:00,47.8,45.9,30.31,SSE,160,0.0,0.0,93,0.00,,,0.01,Wunderground v.1.15,2013-02-13 09:25:00,
2013-02-13 01:35:00,47.6,45.7,30.30,NNW,333,0.0,4.0,93,0.00,,,0.01,Wunderground v.1.15,2013-02-13 09:35:00,
2013-02-13 01:45:00,47.4,45.5,30.31,SSW,204,0.0,4.0,93,0.00,,,0.01,Wunderground v.1.15,2013-02-13 09:45:00,
2013-02-13 01:55:00,47.4,45.5,30.31,SE,133,0.0,4.0,93,0.00,,,0.01,Wunderground v.1.15,2013-02-13 09:55:00,
2013-02-13 02:05:00,47.4,45.5,30.31,South,180,0.0,0.0,93,0.00,,,0.01,Wunderground v.1.15,2013-02-13 10:05:00,
2013-02-13 02:15:00,47.4,45.5,30.31,South,185,0.0,0.0,93,0.00,,,0.01,Wunderground v.1.15,2013-02-13 10:15:00,
2013-02-13 02:25:00,47.3,45.4,30.31,SSW,202,0.0,0.0,93,0.00,,,0.01,Wunderground v.1.15,2013-02-13 10:25:00,
2013-02-13 02:35:00,47.3,45.4,30.31,South,185,0.0,1.0,93,0.00,,,0.01,Wunderground v.1.15,2013-02-13 10:35:00,
2013-02-13 02:45:00,47.2,45.3,30.31,ESE,116,0.0,3.0,93,0.00,,,0.01,Wunderground v.1.15,2013-02-13 10:45:00,
2013-02-13 02:50:00,47.2,45.3,30.31,South,185,0.0,3.0,93,0.00,,,0.01,Wunderground v.1.15,2013-02-13 10:50:00,
2013-02-13 02:55:00,47.1,45.2,30.32,South,185,0.0,3.0,93,0.00,,,0.01,Wunderground v.1.15,2013-02-13 10:55:00,
2013-02-13 03:05:00,46.9,44.7,30.32,SSE,164,0.0,0.0,92,0.00,,,0.01,Wunderground v.1.15,2013-02-13 11:05:00,
2013-02-13 03:15:00,46.7,44.8,30.32,ESE,112,0.0,0.0,93,0.00,,,0.01,Wunderground v.1.15,2013-02-13 11:15:00,
2013-02-13 03:25:00,46.4,44.2,30.32,ESE,113,0.0,0.0,92,0.00,,,0.01,Wunderground v.1.15,2013-02-13 11:25:00,
2013-02-13 03:35:00,46.3,44.4,30.32,South,185,0.0,2.0,93,0.00,,,0.01,Wunderground v.1.15,2013-02-13 11:35:00,
2013-02-13 03:45:00,46.3,44.1,30.32,South,180,0.0,3.0,92,0.00,,,0.01,Wunderground v.1.15,2013-02-13 11:45:00,
2013-02-13 03:55:00,46.4,43.6,30.32,SSE,155,1.0,2.0,90,0.00,,,0.01,Wunderground v.1.15,2013-02-13 11:55:00,
2013-02-13 04:05:00,46.3,43.2,30.33,South,185,0.0,1.0,89,0.00,,,0.01,Wunderground v.1.15,2013-02-13 12:05:00,
2013-02-13 04:15:00,46.2,43.1,30.33,SSW,195,0.0,0.0,89,0.00,,,0.01,Wunderground v.1.15,2013-02-13 12:15:00,
2013-02-13 04:25:00,46.0,42.9,30.33,South,170,1.0,1.0,89,0.00,,,0.01,Wunderground v.1.15,2013-02-13 12:25:00,
2013-02-13 04:35:00,45.9,42.8,30.33,SSW,197,0.0,1.0,89,0.00,,,0.01,Wunderground v.1.15,2013-02-13 12:35:00,
2013-02-13 04:45:00,45.8,42.4,30.33,South,169,1.0,1.0,88,0.00,,,0.01,Wunderground v.1.15,2013-02-13 12:45:00,
2013-02-13 04:55:00,45.7,42.6,30.34,South,175,0.0,1.0,89,0.00,,,0.01,Wunderground v.1.15,2013-02-13 12:55:00,
2013-02-13 05:05:00,45.6,42.3,30.34,NW,306,0.0,3.0,88,0.00,,,0.01,Wunderground v.1.15,2013-02-13 13:05:00,
2013-02-13 05:15:00,45.5,42.2,30.34,SSW,207,1.0,2.0,88,0.00,,,0.01,Wunderground v.1.15,2013-02-13 13:15:00,
2013-02-13 05:25:00,45.4,42.3,30.34,South,170,0.0,1.0,89,0.00,,,0.01,Wunderground v.1.15,2013-02-13 13:25:00,
2013-02-13 05:30:00,45.4,42.1,30.34,SSW,200,0.0,0.0,88,0.00,,,0.01,Wunderground v.1.15,2013-02-13 13:30:00,
2013-02-13 05:35:00,45.3,42.2,30.34,NW,316,1.0,1.0,89,0.00,,,0.01,Wunderground v.1.15,2013-02-13 13:35:00,
2013-02-13 05:45:00,45.2,41.9,30.34,SSE,168,0.0,2.0,88,0.00,,,0.01,Wunderground v.1.15,2013-02-13 13:45:00,
2013-02-13 05:50:00,45.1,41.8,30.34,South,171,0.0,4.0,88,0.00,,,0.01,Wunderground v.1.15,2013-02-13 13:50:00,
2013-02-13 05:55:00,45.0,41.7,30.34,South,171,0.0,4.0,88,0.00,,,0.01,Wunderground v.1.15,2013-02-13 13:55:00,
2013-02-13 06:05:00,45.0,42.0,30.34,SSE,165,0.0,1.0,89,0.00,,,0.01,Wunderground v.1.15,2013-02-13 14:05:00,
2013-02-13 06:15:00,44.9,41.9,30.34,South,185,0.0,0.0,89,0.00,,,0.01,Wunderground v.1.15,2013-02-13 14:15:00,
2013-02-13 06:25:00,44.8,41.5,30.35,SSW,198,0.0,2.0,88,0.00,,,0.01,Wunderground v.1.15,2013-02-13 14:25:00,
2013-02-13 06:30:00,44.8,41.8,30.35,South,185,0.0,0.0,89,0.00,,,0.01,Wunderground v.1.15,2013-02-13 14:30:00,
2013-02-13 06:35:00,44.8,41.8,30.35,South,185,0.0,4.0,89,0.00,,,0.01,Wunderground v.1.15,2013-02-13 14:35:00,
2013-02-13 06:45:00,44.8,41.8,30.35,SSE,151,0.0,4.0,89,0.00,,,0.01,Wunderground v.1.15,2013-02-13 14:45:00,
2013-02-13 06:55:00,44.7,41.7,30.36,South,180,0.0,4.0,89,0.00,,,0.01,Wunderground v.1.15,2013-02-13 14:55:00,
2013-02-13 07:05:00,44.7,41.7,30.36,SW,216,0.0,0.0,89,0.00,,,0.01,Wunderground v.1.15,2013-02-13 15:05:00,
2013-02-13 07:15:00,44.7,41.7,30.36,South,185,0.0,0.0,89,0.00,,,0.01,Wunderground v.1.15,2013-02-13 15:15:00,
2013-02-13 07:25:00,44.6,41.3,30.37,South,175,0.0,0.0,88,0.00,,,0.01,Wunderground v.1.15,2013-02-13 15:25:00,
2013-02-13 07:35:00,44.6,41.6,30.37,South,189,0.0,1.0,89,0.00,,,0.01,Wunderground v.1.15,2013-02-13 15:35:00,
2013-02-13 07:40:00,44.6,41.6,30.37,SE,131,0.0,3.0,89,0.00,,,0.01,Wunderground v.1.15,2013-02-13 15:40:00,
2013-02-13 07:45:00,44.6,41.3,30.37,South,185,0.0,3.0,88,0.00,,,0.01,Wunderground v.1.15,2013-02-13 15:45:00,
2013-02-13 07:55:00,44.7,41.4,30.37,SSW,199,0.0,3.0,88,0.00,,,0.01,Wunderground v.1.15,2013-02-13 15:55:00,
2013-02-13 08:00:00,44.6,41.3,30.37,South,175,0.0,1.0,88,0.00,,,0.01,Wunderground v.1.15,2013-02-13 16:00:00,
2013-02-13 08:10:00,44.7,41.4,30.38,SSW,202,0.0,0.0,88,0.00,,,0.01,Wunderground v.1.15,2013-02-13 16:10:00,
2013-02-13 08:15:00,44.6,41.3,30.38,South,185,0.0,0.0,88,0.00,,,0.01,Wunderground v.1.15,2013-02-13 16:15:00,
2013-02-13 08:25:00,44.7,41.7,30.38,South,175,0.0,0.0,89,0.00,,,0.01,Wunderground v.1.15,2013-02-13 16:25:00,
2013-02-13 08:35:00,44.8,41.5,30.39,South,185,0.0,3.0,88,0.00,,,0.01,Wunderground v.1.15,2013-02-13 16:35:00,
2013-02-13 08:45:00,44.9,41.6,30.39,South,170,0.0,3.0,88,0.00,,,0.01,Wunderground v.1.15,2013-02-13 16:45:00,
2013-02-13 08:55:00,45.1,41.5,30.39,South,175,0.0,3.0,87,0.00,,,0.01,Wunderground v.1.15,2013-02-13 16:55:00,
2013-02-13 09:00:00,45.2,41.9,30.39,South,180,0.0,0.0,88,0.00,,,0.01,Wunderground v.1.15,2013-02-13 17:00:00,
2013-02-13 09:05:00,45.2,41.6,30.40,South,180,0.0,0.0,87,0.00,,,0.01,Wunderground v.1.15,2013-02-13 17:05:00,
2013-02-13 09:15:00,45.4,41.8,30.40,South,175,0.0,0.0,87,0.00,,,0.01,Wunderground v.1.15,2013-02-13 17:15:00,
2013-02-13 09:20:00,45.4,42.1,30.40,South,175,0.0,0.0,88,0.00,,,0.01,Wunderground v.1.15,2013-02-13 17:20:00,
2013-02-13 09:25:00,45.5,41.9,30.40,South,175,0.0,0.0,87,0.00,,,0.01,Wunderground v.1.15,2013-02-13 17:25:00,
2013-02-13 09:35:00,45.7,42.1,30.40,South,171,0.0,3.0,87,0.00,,,0.01,Wunderground v.1.15,2013-02-13 17:35:00,
2013-02-13 09:45:00,45.9,41.9,30.41,SSW,193,0.0,3.0,86,0.00,,,0.01,Wunderground v.1.15,2013-02-13 17:45:00,
2013-02-13 09:55:00,46.0,42.3,30.41,South,185,0.0,3.0,87,0.00,,,0.01,Wunderground v.1.15,2013-02-13 17:55:00,
2013-02-13 10:00:00,45.9,42.2,30.41,West,260,0.0,0.0,87,0.00,,,0.01,Wunderground v.1.15,2013-02-13 18:00:00,
2013-02-13 10:05:00,45.8,42.4,30.41,South,170,0.0,0.0,88,0.00,,,0.01,Wunderground v.1.15,2013-02-13 18:05:00,
2013-02-13 10:15:00,45.5,42.2,30.41,South,180,0.0,0.0,88,0.00,,,0.01,Wunderground v.1.15,2013-02-13 18:15:00,
2013-02-13 10:25:00,45.5,42.4,30.41,SSE,166,0.0,0.0,89,0.00,,,0.01,Wunderground v.1.15,2013-02-13 18:25:00,
2013-02-13 10:35:00,45.7,42.6,30.41,South,185,0.0,1.0,89,0.00,,,0.01,Wunderground v.1.15,2013-02-13 18:35:00,
2013-02-13 10:40:00,45.7,42.6,30.41,SW,234,0.0,1.0,89,0.00,,,0.01,Wunderground v.1.15,2013-02-13 18:40:00,
2013-02-13 10:45:00,45.8,42.4,30.41,South,180,0.0,2.0,88,0.00,,,0.01,Wunderground v.1.15,2013-02-13 18:45:00,
2013-02-13 10:55:00,45.8,42.4,30.42,South,175,0.0,1.0,88,0.00,,,0.01,Wunderground v.1.15,2013-02-13 18:55:00,
2013-02-13 11:05:00,45.7,42.3,30.42,South,175,0.0,0.0,88,0.00,,,0.01,Wunderground v.1.15,2013-02-13 19:05:00,
2013-02-13 11:15:00,45.7,42.3,30.42,South,180,0.0,1.0,88,0.00,,,0.01,Wunderground v.1.15,2013-02-13 19:15:00,
2013-02-13 11:20:00,45.7,42.6,30.42,South,180,0.0,1.0,89,0.00,,,0.01,Wunderground v.1.15,2013-02-13 19:20:00,
2013-02-13 11:25:00,45.6,42.5,30.42,SSE,160,0.0,1.0,89,0.00,,,0.01,Wunderground v.1.15,2013-02-13 19:25:00,
2013-02-13 11:35:00,45.4,42.3,30.41,South,185,0.0,2.0,89,0.00,,,0.01,Wunderground v.1.15,2013-02-13 19:35:00,
2013-02-13 11:45:00,45.5,42.7,30.41,South,180,0.0,2.0,90,0.00,,,0.01,Wunderground v.1.15,2013-02-13 19:45:00,
2013-02-13 11:55:00,45.6,42.8,30.42,SW,225,0.0,2.0,90,0.00,,,0.01,Wunderground v.1.15,2013-02-13 19:55:00,
2013-02-13 12:05:00,45.6,43.4,30.42,SSW,196,0.0,0.0,92,0.00,,,0.01,Wunderground v.1.15,2013-02-13 20:05:00,
2013-02-13 12:15:00,45.7,43.5,30.41,SSW,195,0.0,0.0,92,0.00,,,0.01,Wunderground v.1.15,2013-02-13 20:15:00,
2013-02-13 12:25:00,45.7,43.2,30.41,South,180,0.0,0.0,91,0.00,,,0.01,Wunderground v.1.15,2013-02-13 20:25:00,
2013-02-13 12:35:00,45.9,43.1,30.41,South,175,0.0,2.0,90,0.00,,,0.01,Wunderground v.1.15,2013-02-13 20:35:00,
2013-02-13 12:45:00,46.2,43.1,30.41,SSE,151,0.0,2.0,89,0.00,,,0.01,Wunderground v.1.15,2013-02-13 20:45:00,
2013-02-13 12:55:00,46.7,43.3,30.41,SSW,202,0.0,2.0,88,0.00,,,0.01,Wunderground v.1.15,2013-02-13 20:55:00,
2013-02-13 13:05:00,47.0,43.3,30.41,WNW,294,0.0,0.0,87,0.00,,,0.01,Wunderground v.1.15,2013-02-13 21:05:00,
2013-02-13 13:15:00,47.4,43.4,30.41,NW,310,0.0,0.0,86,0.00,,,0.01,Wunderground v.1.15,2013-02-13 21:15:00,
2013-02-13 13:20:00,47.6,43.6,30.41,SSE,156,0.0,0.0,86,0.00,,,0.01,Wunderground v.1.15,2013-02-13 21:20:00,
2013-02-13 13:25:00,47.6,43.3,30.40,SW,232,0.0,0.0,85,0.00,,,0.01,Wunderground v.1.15,2013-02-13 21:25:00,
2013-02-13 13:35:00,47.7,43.4,30.41,SSW,192,0.0,1.0,85,0.00,,,0.01,Wunderground v.1.15,2013-02-13 21:35:00,
2013-02-13 13:45:00,47.8,43.2,30.41,SSW,192,0.0,1.0,84,0.00,,,0.01,Wunderground v.1.15,2013-02-13 21:45:00,
2013-02-13 13:55:00,48.0,43.4,30.41,SSW,192,0.0,1.0,84,0.00,,,0.01,Wunderground v.1.15,2013-02-13 21:55:00,
2013-02-13 14:05:00,48.2,43.3,30.41,SSW,192,0.0,0.0,83,0.00,,,0.01,Wunderground v.1.15,2013-02-13 22:05:00,
2013-02-13 14:15:00,48.2,43.0,30.40,SSW,192,0.0,0.0,82,0.00,,,0.01,Wunderground v.1.15,2013-02-13 22:15:00,
2013-02-13 14:25:00,48.3,42.7,30.41,SSW,192,0.0,0.0,81,0.00,,,0.01,Wunderground v.1.15,2013-02-13 22:25:00,
2013-02-13 14:35:00,48.5,43.3,30.40,SSW,192,0.0,1.0,82,0.00,,,0.01,Wunderground v.1.15,2013-02-13 22:35:00,
2013-02-13 14:40:00,48.7,43.5,30.41,SSW,192,0.0,1.0,82,0.00,,,0.01,Wunderground v.1.15,2013-02-13 22:40:00,
2013-02-13 14:45:00,48.9,43.3,30.41,SSW,192,0.0,1.0,81,0.00,,,0.01,Wunderground v.1.15,2013-02-13 22:45:00,
2013-02-13 14:55:00,49.1,42.5,30.41,SSW,192,0.0,1.0,78,0.00,,,0.01,Wunderground v.1.15,2013-02-13 22:55:00,
2013-02-13 15:05:00,49.2,42.6,30.41,SSW,192,0.0,0.0,78,0.00,,,0.01,Wunderground v.1.15,2013-02-13 23:05:00,
2013-02-13 15:15:00,49.3,42.7,30.41,SSW,192,0.0,0.0,78,0.00,,,0.01,Wunderground v.1.15,2013-02-13 23:15:00,
2013-02-13 15:25:00,49.4,42.5,30.41,SSW,192,0.0,0.0,77,0.00,,,0.01,Wunderground v.1.15,2013-02-13 23:25:00,
2013-02-13 15:35:00,49.6,43.0,30.41,SSW,192,0.0,0.0,78,0.00,,,0.01,Wunderground v.1.15,2013-02-13 23:35:00,
2013-02-13 15:45:00,49.6,42.7,30.41,SSW,192,0.0,0.0,77,0.00,,,0.01,Wunderground v.1.15,2013-02-13 23:45:00,
2013-02-13 15:55:00,49.7,42.8,30.41,SSW,192,0.0,0.0,77,0.00,,,0.01,Wunderground v.1.15,2013-02-13 23:55:00,
2013-02-13 16:00:00,49.8,42.9,30.41,SSW,192,0.0,0.0,77,0.00,,,0.01,Wunderground v.1.15,2013-02-14 00:00:00,
2013-02-13 16:05:00,49.7,42.4,30.41,SSW,192,0.0,0.0,76,0.00,,,0.01,Wunderground v.1.15,2013-02-14 00:05:00,
2013-02-13 16:15:00,49.8,42.9,30.41,SSW,192,0.0,0.0,77,0.00,,,0.02,Wunderground v.1.15,2013-02-14 00:15:00,
2013-02-13 16:25:00,49.8,42.5,30.41,SSW,192,0.0,0.0,76,0.00,,,0.02,Wunderground v.1.15,2013-02-14 00:25:00,
2013-02-13 16:35:00,49.5,42.2,30.41,SSW,192,0.0,0.0,76,0.00,,,0.02,Wunderground v.1.15,2013-02-14 00:35:00,
2013-02-13 16:45:00,49.2,42.3,30.42,SSW,192,0.0,0.0,77,0.00,,,0.02,Wunderground v.1.15,2013-02-14 00:45:00,
2013-02-13 16:55:00,49.0,43.1,30.42,NW,307,0.0,0.0,80,0.00,,,0.02,Wunderground v.1.15,2013-02-14 00:55:00,
2013-02-13 17:05:00,48.4,43.2,30.42,NNW,339,0.0,0.0,82,0.00,,,0.02,Wunderground v.1.15,2013-02-14 01:05:00,
2013-02-13 17:15:00,47.9,43.0,30.42,NW,312,0.0,0.0,83,0.00,,,0.02,Wunderground v.1.15,2013-02-14 01:15:00,
2013-02-13 17:25:00,47.5,42.9,30.42,NW,304,0.0,0.0,84,0.00,,,0.02,Wunderground v.1.15,2013-02-14 01:25:00,
2013-02-13 17:35:00,47.2,42.9,30.42,NW,312,0.0,0.0,85,0.00,,,0.02,Wunderground v.1.15,2013-02-14 01:35:00,
2013-02-13 17:45:00,47.0,42.7,30.42,NW,308,0.0,0.0,85,0.00,,,0.02,Wunderground v.1.15,2013-02-14 01:45:00,
2013-02-13 17:55:00,46.9,42.6,30.42,NW,313,0.0,0.0,85,0.00,,,0.02,Wunderground v.1.15,2013-02-14 01:55:00,
2013-02-13 18:05:00,46.8,42.5,30.42,NW,305,0.0,1.0,85,0.00,,,0.02,Wunderground v.1.15,2013-02-14 02:05:00,
2013-02-13 18:10:00,46.8,42.8,30.42,NW,314,0.0,0.0,86,0.00,,,0.02,Wunderground v.1.15,2013-02-14 02:10:00,
2013-02-13 18:15:00,46.8,43.1,30.42,NW,314,0.0,0.0,87,0.00,,,0.02,Wunderground v.1.15,2013-02-14 02:15:00,
2013-02-13 18:25:00,46.8,43.4,30.42,WNW,303,0.0,0.0,88,0.00,,,0.02,Wunderground v.1.15,2013-02-14 02:25:00,
2013-02-13 18:30:00,46.8,43.4,30.42,NW,309,0.0,0.0,88,0.00,,,0.02,Wunderground v.1.15,2013-02-14 02:30:00,
2013-02-13 18:35:00,46.7,43.3,30.42,NW,316,0.0,3.0,88,0.00,,,0.02,Wunderground v.1.15,2013-02-14 02:35:00,
2013-02-13 18:45:00,46.7,43.0,30.43,NNW,337,0.0,3.0,87,0.00,,,0.02,Wunderground v.1.15,2013-02-14 02:45:00,
2013-02-13 18:55:00,46.6,42.6,30.43,North,356,0.0,3.0,86,0.00,,,0.02,Wunderground v.1.15,2013-02-14 02:55:00,
2013-02-13 19:00:00,46.6,42.9,30.43,North,11,0.0,0.0,87,0.00,,,0.02,Wunderground v.1.15,2013-02-14 03:00:00,
2013-02-13 19:05:00,46.5,42.8,30.43,North,353,0.0,0.0,87,0.00,,,0.02,Wunderground v.1.15,2013-02-14 03:05:00,
2013-02-13 19:15:00,46.4,42.7,30.43,North,354,0.0,0.0,87,0.00,,,0.02,Wunderground v.1.15,2013-02-14 03:15:00,
2013-02-13 19:25:00,46.3,42.9,30.43,North,358,0.0,0.0,88,0.00,,,0.02,Wunderground v.1.15,2013-02-14 03:25:00,
2013-02-13 19:35:00,46.2,42.8,30.44,NNW,341,0.0,2.0,88,0.00,,,0.02,Wunderground v.1.15,2013-02-14 03:35:00,
2013-02-13 19:45:00,46.2,42.8,30.44,North,358,0.0,2.0,88,0.00,,,0.02,Wunderground v.1.15,2013-02-14 03:45:00,
2013-02-13 19:55:00,46.2,42.5,30.44,NNW,339,0.0,2.0,87,0.00,,,0.02,Wunderground v.1.15,2013-02-14 03:55:00,
2013-02-13 20:05:00,46.2,42.5,30.44,North,350,0.0,0.0,87,0.00,,,0.02,Wunderground v.1.15,2013-02-14 04:05:00,
2013-02-13 20:15:00,46.1,42.4,30.44,North,4,0.0,0.0,87,0.00,,,0.02,Wunderground v.1.15,2013-02-14 04:15:00,
2013-02-13 20:25:00,46.1,42.4,30.44,NE,38,0.0,0.0,87,0.00,,,0.02,Wunderground v.1.15,2013-02-14 04:25:00,
2013-02-13 20:35:00,46.0,42.3,30.44,NE,38,0.0,1.0,87,0.00,,,0.02,Wunderground v.1.15,2013-02-14 04:35:00,
2013-02-13 20:45:00,46.0,42.3,30.44,NE,38,0.0,1.0,87,0.00,,,0.02,Wunderground v.1.15,2013-02-14 04:45:00,
2013-02-13 20:55:00,46.0,42.3,30.45,NE,38,0.0,1.0,87,0.00,,,0.02,Wunderground v.1.15,2013-02-14 04:55:00,
2013-02-13 21:00:00,46.0,42.3,30.44,NE,38,0.0,0.0,87,0.00,,,0.02,Wunderground v.1.15,2013-02-14 05:00:00,
2013-02-13 21:05:00,46.0,42.3,30.45,NE,38,0.0,0.0,87,0.00,,,0.02,Wunderground v.1.15,2013-02-14 05:05:00,
2013-02-13 21:15:00,46.0,42.3,30.44,NE,38,0.0,0.0,87,0.00,,,0.02,Wunderground v.1.15,2013-02-14 05:15:00,
2013-02-13 21:20:00,46.1,42.4,30.44,NE,38,0.0,0.0,87,0.00,,,0.02,Wunderground v.1.15,2013-02-14 05:20:00,
2013-02-13 21:25:00,46.1,42.4,30.44,NE,38,0.0,0.0,87,0.00,,,0.02,Wunderground v.1.15,2013-02-14 05:25:00,
2013-02-13 21:35:00,46.1,42.4,30.45,NE,38,0.0,1.0,87,0.00,,,0.02,Wunderground v.1.15,2013-02-14 05:35:00,
2013-02-13 21:45:00,46.1,42.4,30.45,NE,38,0.0,1.0,87,0.00,,,0.02,Wunderground v.1.15,2013-02-14 05:45:00,
2013-02-13 21:50:00,46.1,42.4,30.45,NE,38,0.0,1.0,87,0.00,,,0.02,Wunderground v.1.15,2013-02-14 05:50:00,
2013-02-13 21:55:00,46.1,42.4,30.45,NE,38,0.0,1.0,87,0.00,,,0.02,Wunderground v.1.15,2013-02-14 05:55:00,
2013-02-13 22:00:00,46.1,42.4,30.45,NE,38,0.0,0.0,87,0.00,,,0.02,Wunderground v.1.15,2013-02-14 06:00:00,
2013-02-13 22:05:00,46.2,42.8,30.45,NE,38,0.0,0.0,88,0.00,,,0.02,Wunderground v.1.15,2013-02-14 06:05:00,
2013-02-13 22:15:00,46.2,43.1,30.46,NE,38,0.0,0.0,89,0.00,,,0.02,Wunderground v.1.15,2013-02-14 06:15:00,
2013-02-13 22:25:00,46.3,43.5,30.46,NE,38,0.0,0.0,90,0.00,,,0.02,Wunderground v.1.15,2013-02-14 06:25:00,
2013-02-13 22:35:00,46.3,43.5,30.46,NE,38,0.0,0.0,90,0.00,,,0.02,Wunderground v.1.15,2013-02-14 06:35:00,
2013-02-13 22:45:00,46.3,43.5,30.46,NE,38,0.0,0.0,90,0.00,,,0.02,Wunderground v.1.15,2013-02-14 06:45:00,
2013-02-13 22:55:00,46.3,43.8,30.46,NE,38,0.0,0.0,91,0.00,,,0.02,Wunderground v.1.15,2013-02-14 06:55:00,
2013-02-13 23:05:00,46.2,43.4,30.46,NE,38,0.0,0.0,90,0.00,,,0.02,Wunderground v.1.15,2013-02-14 07:05:00,
2013-02-13 23:15:00,46.2,43.7,30.46,NE,38,0.0,0.0,91,0.00,,,0.02,Wunderground v.1.15,2013-02-14 07:15:00,
2013-02-13 23:25:00,46.2,43.7,30.47,NE,38,0.0,0.0,91,0.00,,,0.02,Wunderground v.1.15,2013-02-14 07:25:00,
2013-02-13 23:35:00,46.1,43.9,30.47,NE,38,0.0,0.0,92,0.00,,,0.02,Wunderground v.1.15,2013-02-14 07:35:00,
2013-02-13 23:45:00,46.0,43.8,30.47,SE,141,0.0,0.0,92,0.00,,,0.02,Wunderground v.1.15,2013-02-14 07:45:00,
2013-02-13 23:55:00,45.9,43.7,30.48,South,175,0.0,0.0,92,0.00,,,0.02,Wunderground v.1.15,2013-02-14 07:55:00,